Time,TemperatureF,DewpointF,PressureIn,WindDirection,WindDirectionDegrees,WindSpeedMPH,WindSpeedGustMPH,Humidity,HourlyPrecipIn,Conditions,Clouds,dailyrainin,SoftwareType,DateUTC
2013-08-27 00:12:00,73.1,67.0,29.94,SW,223,2.0,7.0,82,0.00,,,0.00,weatherlink.com 1.10,2013-08-27 04:12:00,
2013-08-27 00:27:00,73.3,68.0,29.94,West,270,2.0,6.0,82,0.00,,,0.00,weatherlink.com 1.10,2013-08-27 04:27:00,
2013-08-27 00:42:00,73.4,67.0,29.93,WSW,238,2.0,6.0,81,0.00,,,0.00,weatherlink.com 1.10,2013-08-27 04:42:00,
2013-08-27 00:57:00,73.7,67.0,29.93,WSW,243,2.0,5.0,80,0.00,,,0.00,weatherlink.com 1.10,2013-08-27 04:57:00,
2013-08-27 01:12:00,73.7,67.0,29.92,WSW,251,3.0,6.0,80,0.00,,,0.00,weatherlink.com 1.10,2013-08-27 05:12:00,
2013-08-27 01:27:00,73.6,67.0,29.92,SW,225,2.0,5.0,81,0.00,,,0.00,weatherlink.com 1.10,2013-08-27 05:27:00,
2013-08-27 01:42:00,73.6,67.0,29.92,SW,236,2.0,7.0,81,0.00,,,0.00,weatherlink.com 1.10,2013-08-27 05:42:00,
2013-08-27 01:57:00,73.8,67.0,29.91,WSW,238,2.0,7.0,80,0.00,,,0.00,weatherlink.com 1.10,2013-08-27 05:57:00,
2013-08-27 02:12:00,73.9,67.0,29.91,WSW,240,5.0,8.0,80,0.00,,,0.00,weatherlink.com 1.10,2013-08-27 06:12:00,
2013-08-27 02:27:00,73.9,67.0,29.91,West,266,2.0,10.0,80,0.00,,,0.00,weatherlink.com 1.10,2013-08-27 06:27:00,
2013-08-27 02:42:00,73.6,67.0,29.90,West,260,2.0,6.0,80,0.00,,,0.00,weatherlink.com 1.10,2013-08-27 06:42:00,
2013-08-27 02:57:00,73.4,67.0,29.90,WSW,254,1.0,6.0,81,0.00,,,0.00,weatherlink.com 1.10,2013-08-27 06:57:00,
2013-08-27 03:12:00,73.4,67.0,29.89,SSW,208,3.0,4.0,81,0.00,,,0.00,weatherlink.com 1.10,2013-08-27 07:12:00,
2013-08-27 03:27:00,73.2,67.0,29.89,WSW,242,1.0,5.0,81,0.00,,,0.00,weatherlink.com 1.10,2013-08-27 07:27:00,
2013-08-27 03:42:00,73.1,67.0,29.89,WSW,252,1.0,5.0,82,0.00,,,0.00,weatherlink.com 1.10,2013-08-27 07:42:00,
2013-08-27 03:57:00,73.0,67.0,29.89,SW,231,2.0,6.0,82,0.00,,,0.00,weatherlink.com 1.10,2013-08-27 07:57:00,
2013-08-27 04:12:00,72.6,68.0,29.88,SW,223,2.0,6.0,84,0.00,,,0.00,weatherlink.com 1.10,2013-08-27 08:12:00,
2013-08-27 04:27:00,72.2,68.0,29.88,West,271,2.0,5.0,85,0.00,,,0.00,weatherlink.com 1.10,2013-08-27 08:27:00,
2013-08-27 04:42:00,72.3,68.0,29.88,West,266,1.0,5.0,85,0.00,,,0.00,weatherlink.com 1.10,2013-08-27 08:42:00,
2013-08-27 04:57:00,72.3,68.0,29.88,West,271,1.0,7.0,85,0.00,,,0.00,weatherlink.com 1.10,2013-08-27 08:57:00,
2013-08-27 05:12:00,72.4,68.0,29.88,West,262,3.0,6.0,86,0.00,,,0.00,weatherlink.com 1.10,2013-08-27 09:12:00,
2013-08-27 05:27:00,72.1,68.0,29.88,SW,233,1.0,8.0,87,0.00,,,0.00,weatherlink.com 1.10,2013-08-27 09:27:00,
2013-08-27 05:42:00,72.2,68.0,29.87,WSW,254,2.0,5.0,86,0.00,,,0.00,weatherlink.com 1.10,2013-08-27 09:42:00,
2013-08-27 05:57:00,72.5,68.0,29.87,WSW,251,1.0,7.0,85,0.00,,,0.00,weatherlink.com 1.10,2013-08-27 09:57:00,
2013-08-27 06:12:00,72.7,68.0,29.87,West,262,5.0,5.0,85,0.00,,,0.00,weatherlink.com 1.10,2013-08-27 10:12:00,
2013-08-27 06:27:00,72.6,68.0,29.87,West,274,1.0,7.0,85,0.00,,,0.00,weatherlink.com 1.10,2013-08-27 10:27:00,
2013-08-27 06:42:00,72.2,68.0,29.88,West,277,4.0,7.0,86,0.00,,,0.00,weatherlink.com 1.10,2013-08-27 10:42:00,
2013-08-27 06:57:00,71.7,68.0,29.88,West,267,2.0,8.0,87,0.00,,,0.00,weatherlink.com 1.10,2013-08-27 10:57:00,
2013-08-27 07:13:00,71.7,68.0,29.88,West,281,2.0,5.0,87,0.00,,,0.00,weatherlink.com 1.10,2013-08-27 11:13:00,
2013-08-27 07:28:00,72.4,68.0,29.88,NW,305,2.0,6.0,86,0.00,,,0.00,weatherlink.com 1.10,2013-08-27 11:28:00,
2013-08-27 07:43:00,73.5,69.0,29.88,WSW,258,6.0,6.0,85,0.00,,,0.00,weatherlink.com 1.10,2013-08-27 11:43:00,
2013-08-27 07:58:00,74.4,69.0,29.89,West,276,3.0,8.0,83,0.00,,,0.00,weatherlink.com 1.10,2013-08-27 11:58:00,
2013-08-27 08:13:00,75.4,70.0,29.89,West,266,3.0,8.0,82,0.00,,,0.00,weatherlink.com 1.10,2013-08-27 12:13:00,
2013-08-27 08:28:00,76.3,69.0,29.88,West,264,4.0,9.0,79,0.00,,,0.00,weatherlink.com 1.10,2013-08-27 12:28:00,
2013-08-27 08:43:00,77.0,69.0,29.88,WNW,298,3.0,11.0,77,0.00,,,0.00,weatherlink.com 1.10,2013-08-27 12:43:00,
2013-08-27 08:58:00,77.6,70.0,29.88,WSW,254,7.0,10.0,76,0.00,,,0.00,weatherlink.com 1.10,2013-08-27 12:58:00,
2013-08-27 09:13:00,78.3,70.0,29.88,West,276,3.0,12.0,75,0.00,,,0.00,weatherlink.com 1.10,2013-08-27 13:13:00,
2013-08-27 09:28:00,78.8,70.0,29.88,West,280,3.0,14.0,74,0.00,,,0.00,weatherlink.com 1.10,2013-08-27 13:28:00,
2013-08-27 09:43:00,79.8,70.0,29.88,WNW,300,8.0,14.0,71,0.00,,,0.00,weatherlink.com 1.10,2013-08-27 13:43:00,
2013-08-27 09:58:00,80.4,69.0,29.88,WNW,297,2.0,13.0,69,0.00,,,0.00,weatherlink.com 1.10,2013-08-27 13:58:00,
2013-08-27 10:13:00,80.2,69.0,29.88,NNW,342,4.0,11.0,69,0.00,,,0.00,weatherlink.com 1.10,2013-08-27 14:13:00,
2013-08-27 10:28:00,81.1,70.0,29.88,NNE,25,9.0,14.0,68,0.00,,,0.00,weatherlink.com 1.10,2013-08-27 14:28:00,
2013-08-27 10:43:00,82.3,69.0,29.88,NNW,338,6.0,10.0,65,0.00,,,0.00,weatherlink.com 1.10,2013-08-27 14:43:00,
2013-08-27 10:58:00,83.3,70.0,29.88,NW,312,0.0,11.0,64,0.00,,,0.00,weatherlink.com 1.10,2013-08-27 14:58:00,
2013-08-27 11:13:00,83.0,70.0,29.88,NNE,32,0.0,4.0,64,0.00,,,0.00,weatherlink.com 1.10,2013-08-27 15:13:00,
2013-08-27 11:28:00,82.9,68.0,29.88,North,4,0.0,0.0,61,0.00,,,0.00,weatherlink.com 1.10,2013-08-27 15:28:00,
2013-08-27 11:43:00,83.7,68.0,29.88,NNW,341,5.0,8.0,60,0.00,,,0.00,weatherlink.com 1.10,2013-08-27 15:43:00,
2013-08-27 11:58:00,83.8,68.0,29.88,NW,311,0.0,5.0,60,0.00,,,0.00,weatherlink.com 1.10,2013-08-27 15:58:00,
2013-08-27 12:13:00,83.2,68.0,29.88,North,355,0.0,10.0,61,0.00,,,0.00,weatherlink.com 1.10,2013-08-27 16:13:00,
2013-08-27 12:28:00,84.7,68.0,29.88,WNW,287,0.0,9.0,58,0.00,,,0.00,weatherlink.com 1.10,2013-08-27 16:28:00,
2013-08-27 12:43:00,85.3,69.0,29.87,NNE,14,0.0,0.0,59,0.00,,,0.00,weatherlink.com 1.10,2013-08-27 16:43:00,
2013-08-27 12:58:00,85.4,68.0,29.87,WNW,290,0.0,5.0,56,0.00,,,0.00,weatherlink.com 1.10,2013-08-27 16:58:00,
2013-08-27 13:13:00,84.8,68.0,29.87,NW,304,2.0,6.0,57,0.00,,,0.00,weatherlink.com 1.10,2013-08-27 17:13:00,
2013-08-27 13:28:00,86.6,68.0,29.87,WNW,283,1.0,13.0,54,0.00,,,0.00,weatherlink.com 1.10,2013-08-27 17:28:00,
2013-08-27 13:43:00,86.3,68.0,29.87,WNW,292,1.0,3.0,54,0.00,,,0.00,weatherlink.com 1.10,2013-08-27 17:43:00,
2013-08-27 13:58:00,86.2,68.0,29.87,NW,323,3.0,13.0,54,0.00,,,0.00,weatherlink.com 1.10,2013-08-27 17:58:00,
2013-08-27 14:13:00,86.1,69.0,29.87,NNW,347,3.0,11.0,57,0.00,,,0.00,weatherlink.com 1.10,2013-08-27 18:13:00,
2013-08-27 14:28:00,85.3,68.0,29.86,ENE,64,2.0,10.0,56,0.00,,,0.00,weatherlink.com 1.10,2013-08-27 18:28:00,
2013-08-27 14:43:00,85.4,68.0,29.86,NW,307,3.0,9.0,57,0.00,,,0.00,weatherlink.com 1.10,2013-08-27 18:43:00,
2013-08-27 14:58:00,86.7,69.0,29.86,NE,49,6.0,7.0,55,0.00,,,0.00,weatherlink.com 1.10,2013-08-27 18:58:00,
2013-08-27 15:13:00,85.7,69.0,29.85,North,350,5.0,7.0,58,0.00,,,0.00,weatherlink.com 1.10,2013-08-27 19:13:00,
2013-08-27 15:29:00,85.6,69.0,29.85,NW,304,3.0,7.0,57,0.00,,,0.00,weatherlink.com 1.10,2013-08-27 19:29:00,
2013-08-27 15:44:00,86.7,68.0,29.84,NW,319,2.0,7.0,53,0.00,,,0.00,weatherlink.com 1.10,2013-08-27 19:44:00,
2013-08-27 15:59:00,87.4,70.0,29.84,NE,50,2.0,7.0,56,0.00,,,0.00,weatherlink.com 1.10,2013-08-27 19:59:00,
2013-08-27 16:14:00,87.4,68.0,29.84,East,84,0.0,8.0,52,0.00,,,0.00,weatherlink.com 1.10,2013-08-27 20:14:00,
2013-08-27 16:29:00,87.6,68.0,29.84,North,10,4.0,8.0,53,0.00,,,0.00,weatherlink.com 1.10,2013-08-27 20:29:00,
2013-08-27 16:44:00,87.0,67.0,29.84,WSW,245,0.0,6.0,52,0.00,,,0.00,weatherlink.com 1.10,2013-08-27 20:44:00,
2013-08-27 16:59:00,88.2,67.0,29.85,NW,311,1.0,7.0,50,0.00,,,0.00,weatherlink.com 1.10,2013-08-27 20:59:00,
2013-08-27 17:29:00,87.8,68.0,29.85,West,271,3.0,5.0,52,0.00,,,0.00,weatherlink.com 1.10,2013-08-27 21:29:00,
2013-08-27 17:59:00,85.9,69.0,29.85,NNE,15,1.0,2.0,58,0.00,,,0.00,weatherlink.com 1.10,2013-08-27 21:59:00,
2013-08-27 18:14:00,86.7,69.0,29.84,West,273,1.0,4.0,56,0.00,,,0.00,weatherlink.com 1.10,2013-08-27 22:14:00,
2013-08-27 18:29:00,86.1,70.0,29.84,West,263,1.0,5.0,58,0.00,,,0.00,weatherlink.com 1.10,2013-08-27 22:29:00,
2013-08-27 18:44:00,84.6,70.0,29.85,WSW,245,1.0,3.0,61,0.00,,,0.00,weatherlink.com 1.10,2013-08-27 22:44:00,
2013-08-27 18:59:00,84.3,70.0,29.85,WNW,282,1.0,2.0,63,0.00,,,0.00,weatherlink.com 1.10,2013-08-27 22:59:00,
2013-08-27 19:14:00,82.4,71.0,29.85,West,281,0.0,1.0,69,0.00,,,0.00,weatherlink.com 1.10,2013-08-27 23:14:00,
2013-08-27 19:29:00,78.5,72.0,29.85,West,281,0.0,0.0,79,0.00,,,0.00,weatherlink.com 1.10,2013-08-27 23:29:00,
2013-08-27 19:44:00,76.1,71.0,29.86,West,281,0.0,0.0,83,0.00,,,0.00,weatherlink.com 1.10,2013-08-27 23:44:00,
2013-08-27 19:59:00,74.4,70.0,29.86,West,281,0.0,0.0,86,0.00,,,0.00,weatherlink.com 1.10,2013-08-27 23:59:00,
2013-08-27 20:14:00,72.9,70.0,29.86,West,281,0.0,1.0,89,0.00,,,0.00,weatherlink.com 1.10,2013-08-28 00:14:00,
2013-08-27 20:29:00,71.9,69.0,29.86,West,281,0.0,0.0,89,0.00,,,0.00,weatherlink.com 1.10,2013-08-28 00:29:00,
2013-08-27 20:45:00,71.1,68.0,29.87,West,281,0.0,0.0,91,0.00,,,0.00,weatherlink.com 1.10,2013-08-28 00:45:00,
2013-08-27 20:59:00,70.3,68.0,29.86,West,281,0.0,0.0,91,0.00,,,0.00,weatherlink.com 1.10,2013-08-28 00:59:00,
2013-08-27 21:14:00,69.7,67.0,29.87,West,281,0.0,0.0,91,0.00,,,0.00,weatherlink.com 1.10,2013-08-28 01:14:00,
2013-08-27 21:29:00,69.3,67.0,29.87,West,281,0.0,0.0,91,0.00,,,0.00,weatherlink.com 1.10,2013-08-28 01:29:00,
2013-08-27 21:44:00,69.1,66.0,29.87,West,281,0.0,0.0,91,0.00,,,0.00,weatherlink.com 1.10,2013-08-28 01:44:00,
2013-08-27 21:59:00,68.8,66.0,29.88,West,281,0.0,1.0,91,0.00,,,0.00,weatherlink.com 1.10,2013-08-28 01:59:00,
2013-08-27 22:14:00,68.6,66.0,29.88,West,281,0.0,0.0,91,0.00,,,0.00,weatherlink.com 1.10,2013-08-28 02:14:00,
2013-08-27 22:29:00,68.2,66.0,29.88,West,281,0.0,0.0,91,0.00,,,0.00,weatherlink.com 1.10,2013-08-28 02:29:00,
2013-08-27 22:44:00,67.6,65.0,29.89,West,281,0.0,0.0,91,0.00,,,0.00,weatherlink.com 1.10,2013-08-28 02:44:00,
2013-08-27 22:59:00,67.2,65.0,29.89,West,281,0.0,0.0,91,0.00,,,0.00,weatherlink.com 1.10,2013-08-28 02:59:00,
2013-08-27 23:14:00,66.8,65.0,29.89,West,281,0.0,0.0,92,0.00,,,0.00,weatherlink.com 1.10,2013-08-28 03:14:00,
2013-08-27 23:29:00,66.9,65.0,29.89,West,281,0.0,0.0,92,0.00,,,0.00,weatherlink.com 1.10,2013-08-28 03:29:00,
2013-08-27 23:59:00,66.4,64.0,29.89,West,281,0.0,0.0,92,0.00,,,0.00,weatherlink.com 1.10,2013-08-28 03:59:00,